Location: Alto Pass Reservoir
(37.5801°N, 89.3084°W)
Time: 20:07:02
(UTC+00:00)

Cosmos 1666 - Pass Details

Date: 29 June 2022
Orbit: 489 x 511 km, 82.5° (Epoch: 08 August)

Event Time Altitude Azimuth Distance (km) Brightness Sun altitude
Exits shadow 08:33:26 - 138° (SE) 2,478 6.0 -19.4°
Reaches altitude 10° 08:36:25 10° 108° (ESE) 1,717 5.6 -19.0°
Maximum altitude 08:37:47 12° 86° (E) 1,610 5.7 -18.9°
Drops below altitude 10° 08:39:10 10° 65° (ENE) 1,718 6.3 -18.7°
Sets 08:42:31 0° 32° (NNE) 2,602 7.9 -18.3°
